This is the latest recevied weather packets stored in our database for station/object LU4EGV-13. If no packets are shown the sender has not sent any weather packets the latest 10 day(s).
| Time | Temp. | Humidity | Pressure | Rain* | Wind** | Luminosity | Snow |
|---|---|---|---|---|---|---|---|
| 1787927957 | 18.33° C | 45% | 1008.2 hPa | 0 mm | - | - | - |
| 1787927348 | 17.78° C | 46% | 1008.1 hPa | 0 mm | - | - | - |
| 1787926743 | 18.33° C | 48% | 1007.9 hPa | 0 mm | - | - | - |
| 1787926137 | 17.78° C | 51% | 1007.9 hPa | 0 mm | - | - | - |
| 1787925530 | 17.78° C | 59% | 1008.2 hPa | 0 mm | - | - | - |
| 1787924924 | 17.78° C | 68% | 1008.2 hPa | 0 mm | - | - | - |
| 1787924318 | 17.78° C | 78% | 1008.4 hPa | 0 mm | - | - | - |
| 1787923723 | 15.56° C | 85% | 1008.1 hPa | 0 mm | - | - | - |
| 1787923113 | 15.56° C | 92% | 1007.7 hPa | 0 mm | - | - | - |
| 1787922500 | 15° C | 95% | 1007.7 hPa | 0 mm | - | - | - |
| 1787921893 | 13.89° C | 97% | 1007.7 hPa | 0 mm | - | - | - |
| 1787921288 | 13.33° C | 97% | 1007.4 hPa | 0 mm | - | - | - |
| 1787920681 | 12.78° C | 96% | 1007.1 hPa | 0 mm | - | - | - |
| 1787920084 | 11.67° C | 97% | 1007.2 hPa | 0 mm | - | - | - |
| 1787919469 | 11.11° C | 96% | 1006.7 hPa | 0 mm | - | - | - |
| 1787918863 | 10.56° C | 97% | 1007 hPa | 0 mm | - | - | - |
| 1787918256 | 10.56° C | 96% | 1006.8 hPa | 0 mm | - | - | - |
| 1787917650 | 10° C | 96% | 1007.2 hPa | 0 mm | - | - | - |
| 1787917045 | 10° C | 96% | 1007.1 hPa | 0 mm | - | - | - |
| 1787916441 | 10° C | 96% | 1007.2 hPa | 0 mm | - | - | - |
| 1787915835 | 10° C | 97% | 1007 hPa | 0 mm | - | - | - |
| 1787915226 | 9.44° C | 97% | 1007 hPa | 0 mm | - | - | - |
| 1787914619 | 9.44° C | 97% | 1006.7 hPa | 0 mm | - | - | - |
| 1787914013 | 9.44° C | 97% | 1006.6 hPa | 0 mm | - | - | - |
| 1787913406 | 9.44° C | 97% | 1006.1 hPa | 0 mm | - | - | - |
* Rain latest hour (hover to see other rain measurements)
** Current wind speed in m/s (hover to see current wind gust speed)